Weather Roundup
Issued by NWS Chicago, IL

Home | Current Version | Previous Version | Graphics & Text | Print | Product List | Glossary On
Versions: 1 2 3 4 5 6 7 8 9 10 11 12 13 14 15 16 17 18 19 20 21 22 23 24 25 26 27 28 29 30 31 32 33 34 35 36 37 38 39 40 41 42 43 44 45 46 47 48 49 50
000
NZUS59 KLOT 252258
HRRLOT

CHICAGO AREA WEATHER ROUNDUP
NATIONAL WEATHER SERVICE CHICAGO/ROMEOVILLE IL
500 PM CST THU DEC 25 2014

NOTE: "FAIR" INDICATES FEW OR NO CLOUDS BELOW 12,000 FEET WITH NO
SIGNIFICANT WEATHER AND/OR OBSTRUCTIONS TO VISIBILITY.

* THESE STATIONS ARE NOT UNDER NWS QUALITY CONTROL. THEY ALSO MAY NOT
  REPORT WEATHER SUCH AS PRECIPITATION OR FOG.

ILZ005-006-012>014-019>023-260000-
NORTHEAST ILLINOIS

CITY           SKY/WX    TMP DP  RH WIND       PRES   REMARKS
OHARE          MOCLDY    39  32  76 S10       29.97R
MIDWAY         NOT AVBL
AURORA         PTCLDY    41  33  73 S10       29.97R
WAUKEGAN       NOT AVBL
DUPAGE AIRPORT PTCLDY    40  33  76 S9        29.96R
WHEELING       CLOUDY    41  31  67 S10       29.98S
NORTHERLY IS     N/A     41  33  73 S7          N/A
$$

WIZ051-052-058>065-066-070>072-260000-
SOUTHEAST WISCONSIN

CITY           SKY/WX    TMP DP  RH WIND       PRES   REMARKS
MILWAUKEE      MOCLDY    39  30  70 S7        29.93F
KENOSHA*       CLOUDY    38  31  76 S6        29.94S
WAUKESHA       MOCLDY    37  30  75 S7        29.93S
$$

INZ001>003-010>013-019-020-260000-
NORTHWEST INDIANA

CITY           SKY/WX    TMP DP  RH WIND       PRES   REMARKS
GARY*          PTCLDY    41  30  65 S12       30.02S
MICHIGAN CITY* NOT AVBL
RENSSELAER*    NOT AVBL
$$

LMZ740>746-260000-
SOUTHERN LAKE MICHIGAN

STATION/POSITION TIME  SKY/WX   TEMP WIND        PRES    VSBY
                                AIR  DIR/SP/G
                 (UTC)          (F)  (DEG/KT/KT) (MB)    (MI)
HARRISON CRIB    2200            41  190/ 17/ 19   N/A
BURNHAM HARBOR   2200            41  180/  6/ 17   N/A
CALUMET HARBOR   2200            41  170/  9/ 15 1014.5F
BURNS HARBOR     NOT AVBL
MICHIGAN CITY    2200            40  170/ 12/ 15   N/A
$$

ABBREVIATIONS USED IN REMARKS
   TC - TEMPERATURE IN CELSIUS
  WCI - WIND CHILL INDEX
   HX - HEAT INDEX
  VSB - VISIBILITY
$$


USA.gov is the U.S. government's official web portal to all federal, state and local government web resources and services.